Year,Month,Day,Hour,Minute,Value (Times are PST for temperature in C)
2014,09,14,00,00,12.70
2014,09,14,00,01,12.70
2014,09,14,00,02,12.70
2014,09,14,00,03,12.70
2014,09,14,00,04,12.70
2014,09,14,00,05,12.70
2014,09,14,00,06,12.70
2014,09,14,00,07,12.70
2014,09,14,00,08,12.70
2014,09,14,00,09,12.70
2014,09,14,00,10,12.70
2014,09,14,00,11,12.70
2014,09,14,00,12,12.60
2014,09,14,00,13,12.60
2014,09,14,00,14,12.60
2014,09,14,00,15,12.60
2014,09,14,00,16,12.60
2014,09,14,00,17,12.60
2014,09,14,00,18,12.60
2014,09,14,00,19,12.60
2014,09,14,00,20,12.60
2014,09,14,00,21,12.60
2014,09,14,00,22,12.60
2014,09,14,00,23,12.60
2014,09,14,00,24,12.60
2014,09,14,00,25,12.60
2014,09,14,00,26,12.60
2014,09,14,00,27,12.60
2014,09,14,00,28,12.60
2014,09,14,00,29,12.60
2014,09,14,00,30,12.60
2014,09,14,00,31,12.50
2014,09,14,00,32,12.50
2014,09,14,00,33,12.50
2014,09,14,00,34,12.50
2014,09,14,00,35,12.50
2014,09,14,00,36,12.50
2014,09,14,00,37,12.50
2014,09,14,00,38,12.40
2014,09,14,00,39,12.40
2014,09,14,00,40,12.40
2014,09,14,00,41,12.40
2014,09,14,00,42,12.40
2014,09,14,00,43,12.40
2014,09,14,00,44,12.40
2014,09,14,00,45,12.40
2014,09,14,00,46,12.40
2014,09,14,00,47,12.40
2014,09,14,00,48,12.40
2014,09,14,00,49,12.40
2014,09,14,00,50,12.40
2014,09,14,00,51,12.40
2014,09,14,00,52,12.40
2014,09,14,00,53,12.40
2014,09,14,00,54,12.40
2014,09,14,00,55,12.30
2014,09,14,00,56,12.30
2014,09,14,00,57,12.30
2014,09,14,00,58,12.30
2014,09,14,00,59,12.30
2014,09,14,01,00,12.30
2014,09,14,01,01,12.30
2014,09,14,01,02,12.30
2014,09,14,01,03,12.30
2014,09,14,01,04,12.30
2014,09,14,01,05,12.30
2014,09,14,01,06,12.30
2014,09,14,01,07,12.30
2014,09,14,01,08,12.30
2014,09,14,01,09,12.30
2014,09,14,01,10,12.30
2014,09,14,01,11,12.30
2014,09,14,01,12,12.30
2014,09,14,01,13,12.30
2014,09,14,01,14,12.30
2014,09,14,01,15,12.20
2014,09,14,01,16,12.20
2014,09,14,01,17,12.20
2014,09,14,01,18,12.20
2014,09,14,01,19,12.20
2014,09,14,01,20,12.20
2014,09,14,01,21,12.20
2014,09,14,01,22,12.20
2014,09,14,01,23,12.20
2014,09,14,01,24,12.20
2014,09,14,01,25,12.20
2014,09,14,01,26,12.20
2014,09,14,01,27,12.20
2014,09,14,01,28,12.20
2014,09,14,01,29,12.20
2014,09,14,01,30,12.20
2014,09,14,01,31,12.10
2014,09,14,01,32,12.10
2014,09,14,01,33,12.10
2014,09,14,01,34,12.10
2014,09,14,01,35,12.10
2014,09,14,01,36,12.10
2014,09,14,01,37,12.10
2014,09,14,01,38,12.10
2014,09,14,01,39,12.10
2014,09,14,01,40,12.10
2014,09,14,01,41,12.10
2014,09,14,01,42,12.10
2014,09,14,01,43,12.10
2014,09,14,01,44,12.10
2014,09,14,01,49,12.10
2014,09,14,01,50,12.10
2014,09,14,01,51,12.10
2014,09,14,01,52,12.10
2014,09,14,01,53,12.10
2014,09,14,01,54,12.10
2014,09,14,01,55,12.10
2014,09,14,01,56,12.10
2014,09,14,01,57,12.10
2014,09,14,01,58,12.10
2014,09,14,01,59,12.10
2014,09,14,02,00,12.10
2014,09,14,02,01,12.10
2014,09,14,02,02,12.10
2014,09,14,02,03,12.10
2014,09,14,02,04,12.10
2014,09,14,02,05,12.10
2014,09,14,02,06,12.10
2014,09,14,02,07,12.10
2014,09,14,02,08,12.10
2014,09,14,02,09,12.10
2014,09,14,02,10,12.10
2014,09,14,02,11,12.10
2014,09,14,02,12,12.10
2014,09,14,02,13,12.10
2014,09,14,02,14,12.10
2014,09,14,02,15,12.10
2014,09,14,02,16,12.10
2014,09,14,02,17,12.10
2014,09,14,02,18,12.10
2014,09,14,02,19,12.10
2014,09,14,02,20,12.10
2014,09,14,02,21,12.10
2014,09,14,02,22,12.10
2014,09,14,02,23,12.10
2014,09,14,02,24,12.10
2014,09,14,02,25,12.10
2014,09,14,02,26,12.10
2014,09,14,02,27,12.10
2014,09,14,02,28,12.10
2014,09,14,02,29,12.10
2014,09,14,02,30,12.10
2014,09,14,02,31,12.10
2014,09,14,02,32,12.10
2014,09,14,02,33,12.10
2014,09,14,02,34,12.10
2014,09,14,02,35,12.20
2014,09,14,02,36,12.20
2014,09,14,02,37,12.20
2014,09,14,02,38,12.20
2014,09,14,02,39,12.20
2014,09,14,02,40,12.20
2014,09,14,02,41,12.20
2014,09,14,02,42,12.20
2014,09,14,02,43,12.20
2014,09,14,02,44,12.20
2014,09,14,02,45,12.20
2014,09,14,02,46,12.20
2014,09,14,02,47,12.20
2014,09,14,02,48,12.20
2014,09,14,02,49,12.20
2014,09,14,02,50,12.20
2014,09,14,02,51,12.20
2014,09,14,02,52,12.20
2014,09,14,02,53,12.20
2014,09,14,02,54,12.20
2014,09,14,02,55,12.10
2014,09,14,02,56,12.10
2014,09,14,02,57,12.10
2014,09,14,02,58,12.10
2014,09,14,02,59,12.10
2014,09,14,03,00,12.10
2014,09,14,03,01,12.10
2014,09,14,03,02,12.10
2014,09,14,03,03,12.10
2014,09,14,03,04,12.10
2014,09,14,03,05,12.10
2014,09,14,03,06,12.10
2014,09,14,03,07,12.10
2014,09,14,03,08,12.10
2014,09,14,03,09,12.10
2014,09,14,03,10,12.10
2014,09,14,03,11,12.10
2014,09,14,03,12,12.10
2014,09,14,03,13,12.10
2014,09,14,03,14,12.10
2014,09,14,03,15,12.10
2014,09,14,03,16,12.10
2014,09,14,03,17,12.10
2014,09,14,03,18,12.00
2014,09,14,03,19,12.00
2014,09,14,03,20,12.00
2014,09,14,03,21,12.00
2014,09,14,03,22,12.00
2014,09,14,03,23,12.00
2014,09,14,03,24,12.00
2014,09,14,03,25,12.00
2014,09,14,03,26,12.00
2014,09,14,03,27,12.00
2014,09,14,03,28,12.00
2014,09,14,03,29,12.00
2014,09,14,03,30,12.00
2014,09,14,03,31,12.00
2014,09,14,03,32,12.00
2014,09,14,03,33,12.00
2014,09,14,03,34,12.00
2014,09,14,03,35,11.90
2014,09,14,03,36,11.90
2014,09,14,03,37,11.90
2014,09,14,03,38,11.90
2014,09,14,03,39,11.90
2014,09,14,03,40,11.90
2014,09,14,03,41,11.90
2014,09,14,03,42,11.90
2014,09,14,03,43,11.90
2014,09,14,03,44,11.90
2014,09,14,03,45,11.90
2014,09,14,03,46,11.90
2014,09,14,03,47,11.90
2014,09,14,03,48,11.90
2014,09,14,03,49,11.90
2014,09,14,03,50,11.90
2014,09,14,03,51,11.90
2014,09,14,03,52,11.90
2014,09,14,03,53,11.90
2014,09,14,03,54,11.90
2014,09,14,03,55,11.90
2014,09,14,03,56,11.90
2014,09,14,03,57,11.90
2014,09,14,03,58,11.90
2014,09,14,03,59,11.90
2014,09,14,04,00,11.90
2014,09,14,04,01,11.90
2014,09,14,04,02,11.90
2014,09,14,04,03,11.90
2014,09,14,04,04,11.90
2014,09,14,04,05,11.90
2014,09,14,04,06,11.90
2014,09,14,04,07,11.90
2014,09,14,04,08,11.90
2014,09,14,04,09,11.90
2014,09,14,04,10,11.90
2014,09,14,04,11,11.90
2014,09,14,04,12,11.90
2014,09,14,04,13,11.90
2014,09,14,04,14,11.90
2014,09,14,04,15,11.90
2014,09,14,04,16,11.90
2014,09,14,04,17,11.90
2014,09,14,04,18,11.80
2014,09,14,04,19,11.80
2014,09,14,04,20,11.80
2014,09,14,04,21,11.80
2014,09,14,04,22,11.80
2014,09,14,04,23,11.80
2014,09,14,04,24,11.80
2014,09,14,04,25,11.80
2014,09,14,04,26,11.80
2014,09,14,04,27,11.80
2014,09,14,04,28,11.80
2014,09,14,04,29,11.80
2014,09,14,04,30,11.80
2014,09,14,04,31,11.80
2014,09,14,04,32,11.80
2014,09,14,04,33,11.80
2014,09,14,04,34,11.80
2014,09,14,04,35,11.80
2014,09,14,04,36,11.80
2014,09,14,04,37,11.80
2014,09,14,04,38,11.80
2014,09,14,04,39,11.80
2014,09,14,04,40,11.80
2014,09,14,04,41,11.80
2014,09,14,04,42,11.80
2014,09,14,04,43,11.80
2014,09,14,04,44,11.70
2014,09,14,04,45,11.70
2014,09,14,04,46,11.70
2014,09,14,04,47,11.70
2014,09,14,04,48,11.70
2014,09,14,04,49,11.70
2014,09,14,04,50,11.70
2014,09,14,04,51,11.70
2014,09,14,04,52,11.70
2014,09,14,04,53,11.70
2014,09,14,04,54,11.70
2014,09,14,04,55,11.70
2014,09,14,04,56,11.70
2014,09,14,04,57,11.70
2014,09,14,04,58,11.70
2014,09,14,04,59,11.70
2014,09,14,05,00,11.60
2014,09,14,05,01,11.60
2014,09,14,05,02,11.60
2014,09,14,05,03,11.60
2014,09,14,05,04,11.60
2014,09,14,05,05,11.60
2014,09,14,05,06,11.60
2014,09,14,05,07,11.60
2014,09,14,05,08,11.60
2014,09,14,05,09,11.60
2014,09,14,05,10,11.60
2014,09,14,05,11,11.60
2014,09,14,05,12,11.60
2014,09,14,05,13,11.60
2014,09,14,05,14,11.60
2014,09,14,05,15,11.60
2014,09,14,05,16,11.60
2014,09,14,05,17,11.50
2014,09,14,05,18,11.50
2014,09,14,05,19,11.50
2014,09,14,05,20,11.50
2014,09,14,05,21,11.50
2014,09,14,05,22,11.50
2014,09,14,05,23,11.40
2014,09,14,05,24,11.40
2014,09,14,05,25,11.40
2014,09,14,05,26,11.40
2014,09,14,05,27,11.40
2014,09,14,05,28,11.40
2014,09,14,05,29,11.40
2014,09,14,05,30,11.40
2014,09,14,05,31,11.40
2014,09,14,05,32,11.40
2014,09,14,05,33,11.40
2014,09,14,05,34,11.30
2014,09,14,05,35,11.30
2014,09,14,05,36,11.30
2014,09,14,05,37,11.30
2014,09,14,05,38,11.30
2014,09,14,05,39,11.30
2014,09,14,05,40,11.30
2014,09,14,05,41,11.30
2014,09,14,05,42,11.30
2014,09,14,05,43,11.30
2014,09,14,05,44,11.20
2014,09,14,05,45,11.20
2014,09,14,05,46,11.20
2014,09,14,05,47,11.20
2014,09,14,05,48,11.20
2014,09,14,05,49,11.20
2014,09,14,05,50,11.20
2014,09,14,05,51,11.20
2014,09,14,05,52,11.20
2014,09,14,05,53,11.20
2014,09,14,05,54,11.20
2014,09,14,05,55,11.20
2014,09,14,05,56,11.20
2014,09,14,05,57,11.20
2014,09,14,05,58,11.10
2014,09,14,05,59,11.10
2014,09,14,06,00,11.10
2014,09,14,06,01,11.10
2014,09,14,06,02,11.10
2014,09,14,06,03,11.10
2014,09,14,06,04,11.10
2014,09,14,06,05,11.10
2014,09,14,06,06,11.10
2014,09,14,06,07,11.10
2014,09,14,06,08,11.10
2014,09,14,06,09,11.10
2014,09,14,06,10,11.10
2014,09,14,06,11,11.00
2014,09,14,06,12,11.00
2014,09,14,06,13,11.00
2014,09,14,06,14,11.00
2014,09,14,06,15,11.00
2014,09,14,06,16,11.00
2014,09,14,06,17,11.00
2014,09,14,06,18,11.00
2014,09,14,06,19,10.90
2014,09,14,06,20,10.90
2014,09,14,06,21,10.90
2014,09,14,06,22,10.90
2014,09,14,06,23,10.90
2014,09,14,06,24,10.90
2014,09,14,06,25,10.90
2014,09,14,06,26,10.90
2014,09,14,06,27,10.90
2014,09,14,06,28,10.90
2014,09,14,06,29,10.80
2014,09,14,06,30,10.80
2014,09,14,06,31,10.80
2014,09,14,06,32,10.80
2014,09,14,06,33,10.80
2014,09,14,06,34,10.80
2014,09,14,06,35,10.80
2014,09,14,06,36,10.80
2014,09,14,06,37,10.80
2014,09,14,06,38,10.80
2014,09,14,06,39,10.80
2014,09,14,06,40,10.70
2014,09,14,06,41,10.70
2014,09,14,06,42,10.70
2014,09,14,06,43,10.70
2014,09,14,06,44,10.70
2014,09,14,06,45,10.70
2014,09,14,06,46,10.70
2014,09,14,06,47,10.70
2014,09,14,06,48,10.70
2014,09,14,06,49,10.70
2014,09,14,06,50,10.70
2014,09,14,06,51,10.70
2014,09,14,06,52,10.70
2014,09,14,06,53,10.70
2014,09,14,06,54,10.70
2014,09,14,06,55,10.60
2014,09,14,06,56,10.60
2014,09,14,06,57,10.60
2014,09,14,06,58,10.60
2014,09,14,06,59,10.60
2014,09,14,07,00,10.60
2014,09,14,07,01,10.60
2014,09,14,07,02,10.60
2014,09,14,07,03,10.60
2014,09,14,07,04,10.60
2014,09,14,07,05,10.60
2014,09,14,07,06,10.60
2014,09,14,07,07,10.60
2014,09,14,07,08,10.60
2014,09,14,07,09,10.60
2014,09,14,07,10,10.60
2014,09,14,07,11,10.60
2014,09,14,07,12,10.60
2014,09,14,07,13,10.60
2014,09,14,07,14,10.60
2014,09,14,07,15,10.60
2014,09,14,07,16,10.60
2014,09,14,07,17,10.60
2014,09,14,07,18,10.60
2014,09,14,07,19,10.60
2014,09,14,07,20,10.60
2014,09,14,07,21,10.60
2014,09,14,07,22,10.60
2014,09,14,07,23,10.60
2014,09,14,07,24,10.60
2014,09,14,07,25,10.60
2014,09,14,07,26,10.60
2014,09,14,07,27,10.60
2014,09,14,07,28,10.60
2014,09,14,07,29,10.60
2014,09,14,07,30,10.60
2014,09,14,07,31,10.60
2014,09,14,07,32,10.60
2014,09,14,07,33,10.60
2014,09,14,07,34,10.60
2014,09,14,07,35,10.60
2014,09,14,07,36,10.60
2014,09,14,07,37,10.60
2014,09,14,07,38,10.60
2014,09,14,07,39,10.60
2014,09,14,07,40,10.60
2014,09,14,07,41,10.60
2014,09,14,07,42,10.60
2014,09,14,07,43,10.60
2014,09,14,07,44,10.60
2014,09,14,07,45,10.60
2014,09,14,07,46,10.60
2014,09,14,07,47,10.70
2014,09,14,07,48,10.70
2014,09,14,07,49,10.70
2014,09,14,07,50,10.70
2014,09,14,07,51,10.70
2014,09,14,07,52,10.70
2014,09,14,07,53,10.70
2014,09,14,07,54,10.70
2014,09,14,07,55,10.70
2014,09,14,07,56,10.70
2014,09,14,07,57,10.70
2014,09,14,07,58,10.70
2014,09,14,07,59,10.70
2014,09,14,08,00,10.70
2014,09,14,08,01,10.70
2014,09,14,08,02,10.70
2014,09,14,08,03,10.70
2014,09,14,08,04,10.70
2014,09,14,08,05,10.70
2014,09,14,08,06,10.70
2014,09,14,08,07,10.80
2014,09,14,08,08,10.80
2014,09,14,08,09,10.80
2014,09,14,08,10,10.80
2014,09,14,08,11,10.80
2014,09,14,08,12,10.80
2014,09,14,08,13,10.80
2014,09,14,08,14,10.80
2014,09,14,08,15,10.80
2014,09,14,08,16,10.80
2014,09,14,08,17,10.80
2014,09,14,08,18,10.80
2014,09,14,08,19,10.80
2014,09,14,08,20,10.80
2014,09,14,08,21,10.90
2014,09,14,08,22,10.90
2014,09,14,08,23,10.90
2014,09,14,08,24,10.90
2014,09,14,08,25,10.90
2014,09,14,08,26,10.90
2014,09,14,08,27,10.90
2014,09,14,08,28,10.90
2014,09,14,08,29,11.00
2014,09,14,08,30,11.00
2014,09,14,08,31,11.00
2014,09,14,08,32,11.00
2014,09,14,08,33,11.10
2014,09,14,08,34,11.10
2014,09,14,08,35,11.10
2014,09,14,08,36,11.10
2014,09,14,08,37,11.10
2014,09,14,08,38,11.20
2014,09,14,08,39,11.20
2014,09,14,08,40,11.20
2014,09,14,08,41,11.20
2014,09,14,08,42,11.20
2014,09,14,08,43,11.20
2014,09,14,08,44,11.30
2014,09,14,08,45,11.30
2014,09,14,08,46,11.30
2014,09,14,08,47,11.30
2014,09,14,08,48,11.30
2014,09,14,08,49,11.40
2014,09,14,08,50,11.40
2014,09,14,08,51,11.50
2014,09,14,08,52,11.50
2014,09,14,08,53,11.60
2014,09,14,08,54,11.60
2014,09,14,08,55,11.60
2014,09,14,08,56,11.60
2014,09,14,08,57,11.60
2014,09,14,08,58,11.70
2014,09,14,08,59,11.70
2014,09,14,09,00,11.70
2014,09,14,09,01,11.80
2014,09,14,09,02,11.80
2014,09,14,09,03,11.80
2014,09,14,09,04,11.80
2014,09,14,09,05,11.80
2014,09,14,09,06,11.80
2014,09,14,09,07,11.90
2014,09,14,09,08,11.90
2014,09,14,09,09,11.90
2014,09,14,09,10,11.90
2014,09,14,09,11,12.00
2014,09,14,09,12,12.00
2014,09,14,09,13,12.10
2014,09,14,09,14,12.10
2014,09,14,09,15,12.10
2014,09,14,09,16,12.20
2014,09,14,09,17,12.20
2014,09,14,09,18,12.20
2014,09,14,09,19,12.30
2014,09,14,09,20,12.30
2014,09,14,09,21,12.30
2014,09,14,09,22,12.40
2014,09,14,09,23,12.40
2014,09,14,09,24,12.50
2014,09,14,09,25,12.50
2014,09,14,09,26,12.60
2014,09,14,09,27,12.70
2014,09,14,09,28,12.70
2014,09,14,09,29,12.80
2014,09,14,09,30,12.80
2014,09,14,09,31,12.90
2014,09,14,09,32,13.00
2014,09,14,09,33,13.10
2014,09,14,09,34,13.20
2014,09,14,09,35,13.30
2014,09,14,09,36,13.30
2014,09,14,09,37,13.40
2014,09,14,09,38,13.50
2014,09,14,09,39,13.60
2014,09,14,09,40,13.70
2014,09,14,09,41,13.80
2014,09,14,09,42,13.90
2014,09,14,09,43,13.90
2014,09,14,09,44,14.00
2014,09,14,09,45,14.10
2014,09,14,09,46,14.20
2014,09,14,09,47,14.30
2014,09,14,09,48,14.40
2014,09,14,09,49,14.50
2014,09,14,09,50,14.70
2014,09,14,09,51,14.80
2014,09,14,09,52,15.00
2014,09,14,09,53,15.00
2014,09,14,09,54,15.10
2014,09,14,09,55,15.30
2014,09,14,09,56,15.50
2014,09,14,09,57,15.70
2014,09,14,09,58,15.80
2014,09,14,09,59,16.00
2014,09,14,10,00,16.10
2014,09,14,10,01,16.30
2014,09,14,10,02,16.40
2014,09,14,10,03,16.40
2014,09,14,10,04,16.50
2014,09,14,10,05,16.60
2014,09,14,10,06,16.70
2014,09,14,10,07,16.80
2014,09,14,10,08,17.00
2014,09,14,10,09,17.10
2014,09,14,10,10,17.20
2014,09,14,10,11,17.30
2014,09,14,10,12,17.30
2014,09,14,10,13,17.40
2014,09,14,10,14,17.40
2014,09,14,10,15,17.50
2014,09,14,10,16,17.50
2014,09,14,10,17,17.60
2014,09,14,10,18,17.70
2014,09,14,10,19,17.80
2014,09,14,10,20,17.90
2014,09,14,10,21,18.00
2014,09,14,10,22,18.10
2014,09,14,10,23,18.20
2014,09,14,10,24,18.20
2014,09,14,10,25,18.30
2014,09,14,10,26,18.30
2014,09,14,10,27,18.40
2014,09,14,10,28,18.40
2014,09,14,10,29,18.40
2014,09,14,10,30,18.50
2014,09,14,10,31,18.60
2014,09,14,10,32,18.60
2014,09,14,10,33,18.70
2014,09,14,10,34,18.80
2014,09,14,10,35,18.80
2014,09,14,10,36,18.90
2014,09,14,10,37,18.90
2014,09,14,10,38,19.00
2014,09,14,10,39,19.00
2014,09,14,10,40,19.10
2014,09,14,10,41,19.10
2014,09,14,10,42,19.20
2014,09,14,10,43,19.20
2014,09,14,10,44,19.10
2014,09,14,10,45,19.10
2014,09,14,10,46,19.00
2014,09,14,10,47,18.90
2014,09,14,10,48,18.90
2014,09,14,10,49,18.90
2014,09,14,10,50,18.90
2014,09,14,10,51,18.90
2014,09,14,10,52,18.90
2014,09,14,10,53,18.90
2014,09,14,10,54,18.90
2014,09,14,10,55,18.90
2014,09,14,10,56,18.90
2014,09,14,10,57,18.90
2014,09,14,10,58,18.90
2014,09,14,10,59,18.90
2014,09,14,11,00,18.90
2014,09,14,11,01,18.80
2014,09,14,11,02,18.90
2014,09,14,11,03,18.90
2014,09,14,11,04,19.00
2014,09,14,11,05,19.10
2014,09,14,11,06,19.10
2014,09,14,11,07,19.20
2014,09,14,11,08,19.20
2014,09,14,11,09,19.30
2014,09,14,11,10,19.30
2014,09,14,11,11,19.30
2014,09,14,11,12,19.30
2014,09,14,11,13,19.30
2014,09,14,11,14,19.30
2014,09,14,11,15,19.40
2014,09,14,11,16,19.40
2014,09,14,11,17,19.40
2014,09,14,11,18,19.40
2014,09,14,11,19,19.40
2014,09,14,11,20,19.40
2014,09,14,11,21,19.40
2014,09,14,11,22,19.40
2014,09,14,11,23,19.50
2014,09,14,11,24,19.60
2014,09,14,11,25,19.60
2014,09,14,11,26,19.60
2014,09,14,11,27,19.70
2014,09,14,11,28,19.70
2014,09,14,11,29,19.80
2014,09,14,11,30,19.80
2014,09,14,11,31,19.90
2014,09,14,11,32,19.90
2014,09,14,11,33,20.00
2014,09,14,11,34,20.00
2014,09,14,11,35,20.10
2014,09,14,11,36,20.10
2014,09,14,11,37,20.10
2014,09,14,11,38,20.10
2014,09,14,11,39,20.00
2014,09,14,11,40,20.00
2014,09,14,11,41,20.00
2014,09,14,11,42,20.00
2014,09,14,11,43,20.00
2014,09,14,11,44,20.00
2014,09,14,11,45,19.90
2014,09,14,11,46,19.90
2014,09,14,11,47,19.90
2014,09,14,11,48,19.80
2014,09,14,11,49,19.80
2014,09,14,11,50,19.80
2014,09,14,11,51,19.80
2014,09,14,11,52,19.80
2014,09,14,11,53,19.90
2014,09,14,11,54,20.00
2014,09,14,11,55,20.00
2014,09,14,11,56,20.10
2014,09,14,11,57,20.10
2014,09,14,11,58,20.20
2014,09,14,11,59,20.20
2014,09,14,12,00,20.20
2014,09,14,12,01,20.20
2014,09,14,12,02,20.20
2014,09,14,12,03,20.20
2014,09,14,12,04,20.10
2014,09,14,12,05,20.10
2014,09,14,12,06,20.10
2014,09,14,12,07,20.10
2014,09,14,12,08,20.10
2014,09,14,12,09,20.20
2014,09,14,12,10,20.20
2014,09,14,12,11,20.20
2014,09,14,12,12,20.20
2014,09,14,12,13,20.20
2014,09,14,12,14,20.20
2014,09,14,12,15,20.20
2014,09,14,12,16,20.30
2014,09,14,12,17,20.40
2014,09,14,12,18,20.40
2014,09,14,12,19,20.50
2014,09,14,12,20,20.50
2014,09,14,12,21,20.60
2014,09,14,12,22,20.60
2014,09,14,12,23,20.60
2014,09,14,12,24,20.60
2014,09,14,12,25,20.50
2014,09,14,12,26,20.50
2014,09,14,12,27,20.50
2014,09,14,12,28,20.50
2014,09,14,12,29,20.50
2014,09,14,12,30,20.50
2014,09,14,12,31,20.50
2014,09,14,12,32,20.60
2014,09,14,12,33,20.60
2014,09,14,12,34,20.70
2014,09,14,12,35,20.70
2014,09,14,12,36,20.80
2014,09,14,12,37,20.90
2014,09,14,12,38,20.90
2014,09,14,12,39,21.00
2014,09,14,12,40,21.10
2014,09,14,12,41,21.10
2014,09,14,12,42,21.20
2014,09,14,12,43,21.30
2014,09,14,12,44,21.40
2014,09,14,12,45,21.40
2014,09,14,12,46,21.50
2014,09,14,12,47,21.50
2014,09,14,12,48,21.50
2014,09,14,12,49,21.50
2014,09,14,12,50,21.40
2014,09,14,12,51,21.40
2014,09,14,12,52,21.40
2014,09,14,12,53,21.40
2014,09,14,12,54,21.40
2014,09,14,12,55,21.50
2014,09,14,12,56,21.60
2014,09,14,12,57,21.60
2014,09,14,12,58,21.60
2014,09,14,12,59,21.60
2014,09,14,13,00,21.60
2014,09,14,13,01,21.60
2014,09,14,13,02,21.70
2014,09,14,13,03,21.70
2014,09,14,13,04,21.70
2014,09,14,13,05,21.80
2014,09,14,13,06,21.80
2014,09,14,13,07,21.80
2014,09,14,13,08,21.80
2014,09,14,13,09,21.80
2014,09,14,13,10,21.80
2014,09,14,13,11,21.70
2014,09,14,13,12,21.70
2014,09,14,13,13,21.80
2014,09,14,13,14,21.80
2014,09,14,13,15,22.00
2014,09,14,13,16,22.10
2014,09,14,13,17,22.20
2014,09,14,13,18,22.30
2014,09,14,13,19,22.30
2014,09,14,13,20,22.40
2014,09,14,13,21,22.40
2014,09,14,13,22,22.50
2014,09,14,13,23,22.50
2014,09,14,13,24,22.70
2014,09,14,13,25,22.70
2014,09,14,13,26,22.80
2014,09,14,13,27,22.80
2014,09,14,13,28,22.80
2014,09,14,13,29,22.80
2014,09,14,13,30,22.90
2014,09,14,13,31,23.00
2014,09,14,13,32,23.00
2014,09,14,13,33,23.00
2014,09,14,13,34,23.10
2014,09,14,13,35,23.10
2014,09,14,13,36,23.00
2014,09,14,13,37,22.90
2014,09,14,13,38,22.90
2014,09,14,13,39,23.00
2014,09,14,13,40,23.10
2014,09,14,13,41,23.20
2014,09,14,13,42,23.30
2014,09,14,13,43,23.30
2014,09,14,13,44,23.30
2014,09,14,13,45,23.40
2014,09,14,13,46,23.50
2014,09,14,13,47,23.60
2014,09,14,13,48,23.60
2014,09,14,13,49,23.60
2014,09,14,13,50,23.50
2014,09,14,13,51,23.40
2014,09,14,13,52,23.40
2014,09,14,13,53,23.40
2014,09,14,13,54,23.40
2014,09,14,13,55,23.40
2014,09,14,13,56,23.40
2014,09,14,13,57,23.40
2014,09,14,13,58,23.40
2014,09,14,13,59,23.40
2014,09,14,14,00,23.40
2014,09,14,14,01,23.40
2014,09,14,14,02,23.40
2014,09,14,14,03,23.40
2014,09,14,14,04,23.50
2014,09,14,14,05,23.50
2014,09,14,14,06,23.50
2014,09,14,14,07,23.60
2014,09,14,14,08,23.60
2014,09,14,14,09,23.70
2014,09,14,14,10,23.70
2014,09,14,14,11,23.70
2014,09,14,14,12,23.60
2014,09,14,14,13,23.60
2014,09,14,14,14,23.50
2014,09,14,14,15,23.50
2014,09,14,14,16,23.50
2014,09,14,14,17,23.50
2014,09,14,14,18,23.50
2014,09,14,14,19,23.50
2014,09,14,14,20,23.60
2014,09,14,14,21,23.60
2014,09,14,14,22,23.60
2014,09,14,14,23,23.70
2014,09,14,14,24,23.70
2014,09,14,14,25,23.80
2014,09,14,14,26,23.80
2014,09,14,14,27,23.90
2014,09,14,14,28,24.00
2014,09,14,14,29,24.00
2014,09,14,14,30,24.10
2014,09,14,14,31,24.10
2014,09,14,14,32,24.00
2014,09,14,14,33,23.90
2014,09,14,14,34,23.90
2014,09,14,14,35,23.90
2014,09,14,14,36,23.90
2014,09,14,14,37,23.90
2014,09,14,14,38,23.90
2014,09,14,14,39,23.90
2014,09,14,14,40,23.90
2014,09,14,14,41,23.90
2014,09,14,14,42,23.80
2014,09,14,14,43,23.70
2014,09,14,14,44,23.60
2014,09,14,14,45,23.60
2014,09,14,14,46,23.60
2014,09,14,14,47,23.60
2014,09,14,14,48,23.60
2014,09,14,14,49,23.60
2014,09,14,14,50,23.70
2014,09,14,14,51,23.70
2014,09,14,14,52,23.80
2014,09,14,14,53,23.90
2014,09,14,14,54,24.00
2014,09,14,14,55,24.20
2014,09,14,14,56,24.30
2014,09,14,14,57,24.40
2014,09,14,14,58,24.40
2014,09,14,14,59,24.40
2014,09,14,15,00,24.40
2014,09,14,15,01,24.50
2014,09,14,15,02,24.50
2014,09,14,15,03,24.60
2014,09,14,15,04,24.60
2014,09,14,15,05,24.60
2014,09,14,15,06,24.60
2014,09,14,15,07,24.60
2014,09,14,15,08,24.50
2014,09,14,15,09,24.50
2014,09,14,15,10,24.50
2014,09,14,15,11,24.40
2014,09,14,15,12,24.40
2014,09,14,15,13,24.30
2014,09,14,15,14,24.20
2014,09,14,15,15,24.10
2014,09,14,15,16,24.00
2014,09,14,15,17,23.80
2014,09,14,15,18,23.70
2014,09,14,15,19,23.70
2014,09,14,15,20,23.70
2014,09,14,15,21,23.70
2014,09,14,15,22,23.70
2014,09,14,15,23,23.70
2014,09,14,15,24,23.70
2014,09,14,15,25,23.70
2014,09,14,15,26,23.60
2014,09,14,15,27,23.60
2014,09,14,15,28,23.50
2014,09,14,15,29,23.50
2014,09,14,15,30,23.50
2014,09,14,15,31,23.50
2014,09,14,15,32,23.60
2014,09,14,15,33,23.60
2014,09,14,15,34,23.70
2014,09,14,15,35,23.70
2014,09,14,15,36,23.80
2014,09,14,15,37,24.00
2014,09,14,15,38,24.00
2014,09,14,15,39,24.10
2014,09,14,15,40,24.10
2014,09,14,15,41,24.20
2014,09,14,15,42,24.20
2014,09,14,15,43,24.30
2014,09,14,15,44,24.30
2014,09,14,15,45,24.30
2014,09,14,15,46,24.30
2014,09,14,15,47,24.20
2014,09,14,15,48,24.20
2014,09,14,15,49,24.10
2014,09,14,15,50,24.10
2014,09,14,15,51,24.10
2014,09,14,15,52,24.00
2014,09,14,15,53,24.00
2014,09,14,15,54,24.00
2014,09,14,15,55,23.90
2014,09,14,15,56,23.90
2014,09,14,15,57,23.90
2014,09,14,15,58,23.90
2014,09,14,15,59,23.80
2014,09,14,16,00,23.80
2014,09,14,16,01,23.70
2014,09,14,16,02,23.60
2014,09,14,16,03,23.50
2014,09,14,16,04,23.50
2014,09,14,16,05,23.40
2014,09,14,16,06,23.40
2014,09,14,16,07,23.40
2014,09,14,16,08,23.40
2014,09,14,16,09,23.40
2014,09,14,16,10,23.40
2014,09,14,16,11,23.30
2014,09,14,16,12,23.30
2014,09,14,16,13,23.30
2014,09,14,16,14,23.20
2014,09,14,16,15,23.20
2014,09,14,16,16,23.20
2014,09,14,16,17,23.20
2014,09,14,16,18,23.30
2014,09,14,16,19,23.30
2014,09,14,16,20,23.30
2014,09,14,16,21,23.40
2014,09,14,16,22,23.40
2014,09,14,16,23,23.50
2014,09,14,16,24,23.60
2014,09,14,16,25,23.70
2014,09,14,16,26,23.70
2014,09,14,16,27,23.80
2014,09,14,16,28,24.00
2014,09,14,16,29,24.10
2014,09,14,16,30,24.20
2014,09,14,16,31,24.20
2014,09,14,16,32,24.30
2014,09,14,16,33,24.40
2014,09,14,16,34,24.40
2014,09,14,16,35,24.50
2014,09,14,16,36,24.50
2014,09,14,16,37,24.60
2014,09,14,16,38,24.70
2014,09,14,16,39,24.70
2014,09,14,16,40,24.80
2014,09,14,16,41,24.80
2014,09,14,16,42,24.80
2014,09,14,16,43,24.80
2014,09,14,16,44,24.90
2014,09,14,16,45,25.00
2014,09,14,16,46,25.00
2014,09,14,16,47,25.10
2014,09,14,16,48,25.10
2014,09,14,16,49,25.20
2014,09,14,16,50,25.20
2014,09,14,16,51,25.20
2014,09,14,16,52,25.20
2014,09,14,16,53,25.20
2014,09,14,16,54,25.20
2014,09,14,16,55,25.30
2014,09,14,16,56,25.30
2014,09,14,16,57,25.30
2014,09,14,16,58,25.30
2014,09,14,16,59,25.30
2014,09,14,17,00,25.40
2014,09,14,17,01,25.40
2014,09,14,17,02,25.50
2014,09,14,17,03,25.60
2014,09,14,17,04,25.60
2014,09,14,17,05,25.60
2014,09,14,17,06,25.70
2014,09,14,17,07,25.60
2014,09,14,17,08,25.60
2014,09,14,17,09,25.60
2014,09,14,17,10,25.60
2014,09,14,17,11,25.60
2014,09,14,17,12,25.60
2014,09,14,17,13,25.50
2014,09,14,17,14,25.50
2014,09,14,17,15,25.50
2014,09,14,17,16,25.50
2014,09,14,17,17,25.50
2014,09,14,17,18,25.50
2014,09,14,17,19,25.50
2014,09,14,17,20,25.50
2014,09,14,17,21,25.50
2014,09,14,17,22,25.40
2014,09,14,17,23,25.40